This demonstration page uses our WeatherBlox Daily Observations layout. Learn more.

Left ArrowRight Arrow

Hourly Observations for June 14, 2016

Temp ( °F °C ) Dew Point ( °F °C ) Humidity (%) Winds ( mph kmh ) Pressure ( in mb ) Visibility ( mi km ) Precip ( " mm )
12:53 am 00:53 Clear 68 20 27 -2.8 21 21 W 3 6 29.88 1012 10 16 0.00 0.00
1:53 am 01:53 Clear 65 18.3 28 -2.2 25 25 W 3 6 29.88 1012 10 16 0.00 0.00
2:53 am 02:53 Clear 60 15.6 30 -1.1 32 32 Calm 29.89 1012 10 16 0.00 0.00
3:53 am 03:53 Clear 59 15 29 -1.7 32 32 Calm 29.90 1012 10 16 0.00 0.00
4:53 am 04:53 Clear 59 15 31 -0.6 35 35 S 7 11 29.91 1013 10 16 0.00 0.00
5:53 am 05:53 Sunny 57 13.9 33 0.6 41 41 WSW 6 9 29.93 1014 10 16 0.00 0.00
6:53 am 06:53 Sunny 59 15 34 1.1 39 39 SW 3 6 29.96 1014 10 16 0.00 0.00
7:53 am 07:53 Sunny 62 16.7 36 2.2 38 38 NW 10 17 29.97 1015 10 16 0.00 0.00
8:53 am 08:53 Sunny 64 17.8 36 2.2 35 35 NW 9 15 29.98 1015 10 16 0.00 0.00
9:53 am 09:53 Sunny 65 18.3 35 1.7 33 33 W 7 11 29.96 1015 10 16 0.00 0.00
10:53 am 10:53 Sunny 69 20.6 36 2.2 30 30 VRB 6 9 29.96 1015 10 16 0.00 0.00
11:53 am 11:53 Sunny 71 21.7 35 1.7 27 27 VRB 5 7 29.94 1014 10 16 0.00 0.00
12:53 pm 12:53 Sunny 72 22.2 32 0 23 23 Calm 29.92 1013 10 16 0.00 0.00
1:53 pm 13:53 Sunny 74 23.3 29 -1.7 19 19 W 8 13 29.90 1013 10 16 0.00 0.00
2:53 pm 14:53 Sunny 76 24.4 29 -1.7 18 18 SSW 7 11 29.88 1012 10 16 0.00 0.00
3:53 pm 15:53 Sunny 77 25 31 -0.6 18 18 VRB 7 11 29.85 1011 10 16 0.00 0.00
4:53 pm 16:53 Sunny 78 25.6 29 -1.7 16 16 SSE 8 13 29.83 1010 10 16 0.00 0.00
5:53 pm 17:53 Sunny 78 25.6 31 -0.6 18 18 SSE 10 17 29.81 1010 10 16 0.00 0.00
6:53 pm 18:53 Sunny 75 23.9 34 1.1 22 22 NNW 9 15 29.82 1010 10 16 0.00 0.00
7:53 pm 19:53 Sunny 75 23.9 33 0.6 22 22 NW 8 13 29.82 1010 10 16 0.00 0.00
8:53 pm 20:53 Clear 70 21.1 33 0.6 26 26 WNW 6 9 29.82 1010 10 16 0.00 0.00
9:53 pm 21:53 Clear 67 19.4 35 1.7 31 31 WNW 5 7 29.83 1010 10 16 0.00 0.00
10:53 pm 22:53 Mostly Cloudy 66 18.9 36 2.2 33 33 Calm 29.84 1010 10 16 0.00 0.00
11:53 pm 23:53 Mostly Cloudy 65 18.3 33 0.6 31 31 WNW 7 11 29.83 1010 10 16 0.00 0.00

Powered by AerisWeather